Time,TemperatureF,DewpointF,PressureIn,WindDirection,WindDirectionDegrees,WindSpeedMPH,WindSpeedGustMPH,Humidity,HourlyPrecipIn,Conditions,Clouds,dailyrainin,SoftwareType,DateUTC
2013-09-16 00:00:00,77.5,71.6,30.00,SE,135,0.0,0.0,82,0.00,,,0.01,Wunderground v.1.15,2013-09-16 05:00:00,
2013-09-16 00:09:00,77.2,71.6,30.00,SE,136,0.0,0.0,83,0.00,,,0.00,Wunderground v.1.15,2013-09-16 05:09:00,
2013-09-16 00:15:00,77.0,71.4,30.00,SE,135,0.0,0.0,83,0.00,,,0.00,Wunderground v.1.15,2013-09-16 05:15:00,
2013-09-16 00:25:00,76.6,71.4,30.00,SE,136,0.0,0.0,84,0.00,,,0.00,Wunderground v.1.15,2013-09-16 05:25:00,
2013-09-16 00:35:00,76.3,71.5,30.00,SE,135,0.0,0.0,85,0.00,,,0.00,Wunderground v.1.15,2013-09-16 05:35:00,
2013-09-16 00:40:00,76.2,71.4,30.00,SE,135,0.0,0.0,85,0.00,,,0.00,Wunderground v.1.15,2013-09-16 05:40:00,
2013-09-16 00:50:00,76.1,71.6,30.00,SE,135,0.0,0.0,86,0.00,,,0.00,Wunderground v.1.15,2013-09-16 05:50:00,
2013-09-16 00:55:00,76.0,71.5,29.99,SE,136,0.0,0.0,86,0.00,,,0.00,Wunderground v.1.15,2013-09-16 05:55:00,
2013-09-16 01:05:00,75.8,71.3,29.99,SE,136,0.0,0.0,86,0.00,,,0.00,Wunderground v.1.15,2013-09-16 06:05:00,
2013-09-16 01:10:00,75.8,71.7,30.00,SE,136,0.0,0.0,87,0.00,,,0.00,Wunderground v.1.15,2013-09-16 06:10:00,
2013-09-16 01:20:00,75.5,71.4,30.00,SE,136,0.0,0.0,87,0.00,,,0.00,Wunderground v.1.15,2013-09-16 06:20:00,
2013-09-16 01:25:00,75.4,71.6,30.00,SE,136,0.0,0.0,88,0.00,,,0.00,Wunderground v.1.15,2013-09-16 06:25:00,
2013-09-16 01:35:00,75.3,71.8,29.99,SE,135,0.0,0.0,89,0.00,,,0.00,Wunderground v.1.15,2013-09-16 06:35:00,
2013-09-16 01:45:00,75.2,71.7,29.99,SE,136,0.0,0.0,89,0.00,,,0.00,Wunderground v.1.15,2013-09-16 06:45:00,
2013-09-16 01:55:00,75.1,72.0,29.99,SE,135,0.0,0.0,90,0.00,,,0.00,Wunderground v.1.15,2013-09-16 06:55:00,
2013-09-16 02:05:00,74.9,71.8,29.99,SE,136,0.0,0.0,90,0.00,,,0.00,Wunderground v.1.15,2013-09-16 07:05:00,
2013-09-16 02:15:00,74.9,71.8,29.99,SE,136,0.0,0.0,90,0.00,,,0.00,Wunderground v.1.15,2013-09-16 07:15:00,
2013-09-16 02:25:00,74.8,72.0,29.99,SE,135,0.0,0.0,91,0.00,,,0.00,Wunderground v.1.15,2013-09-16 07:25:00,
2013-09-16 02:30:00,74.8,72.0,29.99,SE,136,0.0,0.0,91,0.00,,,0.00,Wunderground v.1.15,2013-09-16 07:30:00,
2013-09-16 02:40:00,74.6,71.8,29.99,SE,135,0.0,0.0,91,0.00,,,0.00,Wunderground v.1.15,2013-09-16 07:40:00,
2013-09-16 02:45:00,74.6,71.8,29.99,SE,135,0.0,0.0,91,0.00,,,0.00,Wunderground v.1.15,2013-09-16 07:45:00,
2013-09-16 02:55:00,74.6,71.8,29.99,SE,135,0.0,0.0,91,0.00,,,0.00,Wunderground v.1.15,2013-09-16 07:55:00,
2013-09-16 03:00:00,74.6,71.8,29.99,SE,135,0.0,0.0,91,0.00,,,0.00,Wunderground v.1.15,2013-09-16 08:00:00,
2013-09-16 03:10:00,74.5,72.0,29.99,SE,135,0.0,0.0,92,0.00,,,0.00,Wunderground v.1.15,2013-09-16 08:10:00,
2013-09-16 03:15:00,74.5,72.0,29.99,SE,136,0.0,0.0,92,0.00,,,0.00,Wunderground v.1.15,2013-09-16 08:15:00,
2013-09-16 03:25:00,74.3,71.8,29.99,SE,135,0.0,0.0,92,0.00,,,0.00,Wunderground v.1.15,2013-09-16 08:25:00,
2013-09-16 03:35:00,74.2,71.7,29.98,SE,135,0.0,0.0,92,0.00,,,0.00,Wunderground v.1.15,2013-09-16 08:35:00,
2013-09-16 03:45:00,74.2,72.0,29.98,SE,135,0.0,0.0,93,0.00,,,0.00,Wunderground v.1.15,2013-09-16 08:45:00,
2013-09-16 03:55:00,74.3,72.1,29.98,SE,135,0.0,0.0,93,0.00,,,0.00,Wunderground v.1.15,2013-09-16 08:55:00,
2013-09-16 04:00:00,74.2,72.0,29.98,SE,136,0.0,0.0,93,0.00,,,0.00,Wunderground v.1.15,2013-09-16 09:00:00,
2013-09-16 04:10:00,74.3,72.1,29.98,SE,135,0.0,0.0,93,0.00,,,0.00,Wunderground v.1.15,2013-09-16 09:10:00,
2013-09-16 04:15:00,74.3,72.5,29.98,SE,136,0.0,0.0,94,0.00,,,0.00,Wunderground v.1.15,2013-09-16 09:15:00,
2013-09-16 04:25:00,74.4,72.2,29.98,SE,135,0.0,0.0,93,0.00,,,0.00,Wunderground v.1.15,2013-09-16 09:25:00,
2013-09-16 04:30:00,74.4,72.2,29.98,SE,136,0.0,0.0,93,0.00,,,0.00,Wunderground v.1.15,2013-09-16 09:30:00,
2013-09-16 04:40:00,74.4,72.6,29.98,SE,135,0.0,0.0,94,0.00,,,0.00,Wunderground v.1.15,2013-09-16 09:40:00,
2013-09-16 04:45:00,74.3,72.5,29.98,SE,135,0.0,0.0,94,0.00,,,0.00,Wunderground v.1.15,2013-09-16 09:45:00,
2013-09-16 04:55:00,74.4,72.6,29.98,WNW,288,0.0,0.0,94,0.00,,,0.00,Wunderground v.1.15,2013-09-16 09:55:00,
2013-09-16 05:05:00,74.3,72.5,29.98,WNW,288,0.0,0.0,94,0.00,,,0.00,Wunderground v.1.15,2013-09-16 10:05:00,
2013-09-16 05:10:00,74.2,72.4,29.98,WNW,288,0.0,0.0,94,0.00,,,0.00,Wunderground v.1.15,2013-09-16 10:10:00,
2013-09-16 05:20:00,74.1,72.3,29.99,WNW,288,0.0,0.0,94,0.00,,,0.00,Wunderground v.1.15,2013-09-16 10:20:00,
2013-09-16 05:25:00,74.1,72.3,29.99,WNW,288,0.0,0.0,94,0.00,,,0.00,Wunderground v.1.15,2013-09-16 10:25:00,
2013-09-16 05:35:00,74.0,72.5,29.99,WNW,288,0.0,0.0,95,0.00,,,0.00,Wunderground v.1.15,2013-09-16 10:35:00,
2013-09-16 05:40:00,74.0,72.5,29.99,WNW,290,0.0,0.0,95,0.00,,,0.00,Wunderground v.1.15,2013-09-16 10:40:00,
2013-09-16 05:50:00,74.0,72.5,29.99,WNW,289,0.0,0.0,95,0.00,,,0.00,Wunderground v.1.15,2013-09-16 10:50:00,
2013-09-16 05:55:00,74.2,72.7,29.99,NW,326,0.0,0.0,95,0.00,,,0.00,Wunderground v.1.15,2013-09-16 10:55:00,
2013-09-16 06:05:00,74.5,73.0,29.98,NE,51,0.0,1.0,95,0.00,,,0.00,Wunderground v.1.15,2013-09-16 11:05:00,
2013-09-16 06:10:00,74.6,73.1,29.99,NE,51,0.0,0.0,95,0.00,,,0.00,Wunderground v.1.15,2013-09-16 11:10:00,
2013-09-16 06:19:00,74.8,73.3,29.99,ENE,66,0.0,0.0,95,0.00,,,0.00,Wunderground v.1.15,2013-09-16 11:19:00,
2013-09-16 06:25:00,75.0,73.5,29.99,North,355,0.0,0.0,95,0.00,,,0.00,Wunderground v.1.15,2013-09-16 11:25:00,
2013-09-16 06:35:00,75.1,73.6,29.99,East,91,0.0,1.0,95,0.00,,,0.00,Wunderground v.1.15,2013-09-16 11:35:00,
2013-09-16 06:40:00,75.2,73.7,29.99,NW,314,0.0,2.0,95,0.00,,,0.00,Wunderground v.1.15,2013-09-16 11:40:00,
2013-09-16 06:50:00,75.3,73.8,29.99,NNE,18,0.0,1.0,95,0.00,,,0.00,Wunderground v.1.15,2013-09-16 11:50:00,
2013-09-16 06:55:00,75.3,73.8,29.99,NNW,331,0.0,1.0,95,0.00,,,0.00,Wunderground v.1.15,2013-09-16 11:55:00,
2013-09-16 07:05:00,75.3,73.8,29.99,SSE,150,0.0,0.0,95,0.00,,,0.00,Wunderground v.1.15,2013-09-16 12:05:00,
2013-09-16 07:15:00,75.4,73.9,30.00,NNW,338,0.0,2.0,95,0.00,,,0.00,Wunderground v.1.15,2013-09-16 12:15:00,
2013-09-16 07:20:00,75.4,73.9,30.00,North,349,1.0,1.0,95,0.00,,,0.00,Wunderground v.1.15,2013-09-16 12:20:00,
2013-09-16 07:30:00,75.5,74.0,30.00,NE,51,1.0,1.0,95,0.00,,,0.00,Wunderground v.1.15,2013-09-16 12:30:00,
2013-09-16 07:35:00,75.5,74.3,30.00,North,7,1.0,1.0,96,0.00,,,0.00,Wunderground v.1.15,2013-09-16 12:35:00,
2013-09-16 07:45:00,75.6,74.4,30.00,NE,37,1.0,2.0,96,0.00,,,0.00,Wunderground v.1.15,2013-09-16 12:45:00,
2013-09-16 07:50:00,75.6,74.4,30.00,NNE,18,1.0,5.0,96,0.00,,,0.00,Wunderground v.1.15,2013-09-16 12:50:00,
2013-09-16 08:00:00,75.7,74.2,30.01,North,355,1.0,2.0,95,0.00,,,0.00,Wunderground v.1.15,2013-09-16 13:00:00,
2013-09-16 08:05:00,75.8,74.3,30.01,NNE,26,1.0,2.0,95,0.00,,,0.00,Wunderground v.1.15,2013-09-16 13:05:00,
2013-09-16 08:15:00,75.9,74.4,30.01,NNE,27,1.0,2.0,95,0.00,,,0.00,Wunderground v.1.15,2013-09-16 13:15:00,
2013-09-16 08:20:00,76.0,74.5,30.02,NNE,31,1.0,1.0,95,0.00,,,0.00,Wunderground v.1.15,2013-09-16 13:20:00,
2013-09-16 08:30:00,76.3,74.8,30.02,ENE,77,1.0,1.0,95,0.00,,,0.00,Wunderground v.1.15,2013-09-16 13:30:00,
2013-09-16 08:35:00,76.6,75.1,30.02,NNE,12,1.0,1.0,95,0.00,,,0.00,Wunderground v.1.15,2013-09-16 13:35:00,
2013-09-16 08:45:00,77.2,75.3,30.02,NE,40,1.0,2.0,94,0.00,,,0.00,Wunderground v.1.15,2013-09-16 13:45:00,
2013-09-16 08:50:00,77.5,75.6,30.02,East,79,2.0,2.0,94,0.00,,,0.00,Wunderground v.1.15,2013-09-16 13:50:00,
2013-09-16 09:00:00,78.1,75.6,30.02,ENE,63,1.0,1.0,92,0.00,,,0.00,Wunderground v.1.15,2013-09-16 14:00:00,
2013-09-16 09:10:00,78.4,75.9,30.03,East,85,1.0,3.0,92,0.00,,,0.00,Wunderground v.1.15,2013-09-16 14:10:00,
2013-09-16 09:20:00,78.9,76.0,30.03,NE,53,1.0,1.0,91,0.00,,,0.00,Wunderground v.1.15,2013-09-16 14:20:00,
2013-09-16 09:25:00,79.3,76.1,30.03,ESE,120,1.0,1.0,90,0.00,,,0.00,Wunderground v.1.15,2013-09-16 14:25:00,
2013-09-16 09:34:00,79.8,76.3,30.03,East,95,1.0,1.0,89,0.00,,,0.00,Wunderground v.1.15,2013-09-16 14:34:00,
2013-09-16 09:40:00,80.2,76.3,30.03,ENE,68,1.0,1.0,88,0.00,,,0.00,Wunderground v.1.15,2013-09-16 14:40:00,
2013-09-16 09:50:00,80.8,76.2,30.03,East,96,1.0,1.0,86,0.00,,,0.00,Wunderground v.1.15,2013-09-16 14:50:00,
2013-09-16 09:59:00,80.6,76.0,30.03,East,96,1.0,1.0,86,0.00,,,0.00,Wunderground v.1.15,2013-09-16 14:59:00,
2013-09-16 10:05:00,80.8,76.2,30.03,East,91,0.0,1.0,86,0.00,,,0.00,Wunderground v.1.15,2013-09-16 15:05:00,
2013-09-16 10:15:00,81.1,75.8,30.03,NNE,18,1.0,2.0,84,0.00,,,0.00,Wunderground v.1.15,2013-09-16 15:15:00,
2013-09-16 10:20:00,81.5,75.8,30.03,ESE,102,0.0,1.0,83,0.00,,,0.00,Wunderground v.1.15,2013-09-16 15:20:00,
2013-09-16 10:30:00,82.0,75.6,30.03,WSW,257,1.0,2.0,81,0.00,,,0.00,Wunderground v.1.15,2013-09-16 15:30:00,
2013-09-16 10:40:00,82.3,75.9,30.03,SE,133,1.0,1.0,81,0.00,,,0.00,Wunderground v.1.15,2013-09-16 15:40:00,
2013-09-16 10:45:00,82.6,76.2,30.03,SE,127,1.0,1.0,81,0.00,,,0.00,Wunderground v.1.15,2013-09-16 15:45:00,
2013-09-16 10:55:00,82.8,76.4,30.03,ESE,115,1.0,1.0,81,0.00,,,0.00,Wunderground v.1.15,2013-09-16 15:55:00,
2013-09-16 11:05:00,83.3,76.1,30.03,ESE,113,0.0,0.0,79,0.00,,,0.00,Wunderground v.1.15,2013-09-16 16:05:00,
2013-09-16 11:15:00,83.3,76.1,30.03,ESE,113,1.0,2.0,79,0.00,,,0.00,Wunderground v.1.15,2013-09-16 16:15:00,
2013-09-16 11:25:00,83.8,76.2,30.03,NW,321,1.0,1.0,78,0.00,,,0.00,Wunderground v.1.15,2013-09-16 16:25:00,
2013-09-16 11:30:00,83.9,75.9,30.03,ESE,113,1.0,1.0,77,0.00,,,0.00,Wunderground v.1.15,2013-09-16 16:30:00,
2013-09-16 11:40:00,85.0,77.0,30.03,SW,218,1.0,1.0,77,0.00,,,0.00,Wunderground v.1.15,2013-09-16 16:40:00,
2013-09-16 11:50:00,85.9,76.6,30.03,ESE,103,1.0,1.0,74,0.00,,,0.00,Wunderground v.1.15,2013-09-16 16:50:00,
2013-09-16 12:00:00,85.6,75.9,30.02,ENE,73,1.0,3.0,73,0.00,,,0.00,Wunderground v.1.15,2013-09-16 17:00:00,
2013-09-16 12:10:00,85.7,76.9,30.02,ESE,110,1.0,1.0,75,0.00,,,0.00,Wunderground v.1.15,2013-09-16 17:10:00,
2013-09-16 12:15:00,85.9,76.6,30.02,NE,43,1.0,2.0,74,0.00,,,0.00,Wunderground v.1.15,2013-09-16 17:15:00,
2013-09-16 12:25:00,85.4,76.6,30.02,ESE,122,1.0,3.0,75,0.00,,,0.00,Wunderground v.1.15,2013-09-16 17:25:00,
2013-09-16 12:35:00,85.6,75.5,30.02,ESE,119,2.0,3.0,72,0.00,,,0.00,Wunderground v.1.15,2013-09-16 17:35:00,
2013-09-16 12:45:00,85.9,75.4,30.01,SE,142,1.0,2.0,71,0.00,,,0.00,Wunderground v.1.15,2013-09-16 17:45:00,
2013-09-16 12:50:00,85.9,76.2,30.02,ESE,115,2.0,2.0,73,0.00,,,0.00,Wunderground v.1.15,2013-09-16 17:50:00,
2013-09-16 12:59:00,85.0,78.9,30.01,East,90,1.0,1.0,82,0.00,,,0.01,Wunderground v.1.15,2013-09-16 17:59:00,
2013-09-16 13:05:00,85.0,77.4,30.01,SE,146,1.0,1.0,78,0.00,,,0.01,Wunderground v.1.15,2013-09-16 18:05:00,
2013-09-16 13:14:00,85.3,76.1,30.00,ESE,108,1.0,2.0,74,0.00,,,0.01,Wunderground v.1.15,2013-09-16 18:14:00,
2013-09-16 13:20:00,85.6,76.8,30.00,SE,143,1.0,1.0,75,0.00,,,0.01,Wunderground v.1.15,2013-09-16 18:20:00,
2013-09-16 13:30:00,87.9,76.5,30.00,ESE,111,1.0,4.0,69,0.00,,,0.01,Wunderground v.1.15,2013-09-16 18:30:00,
2013-09-16 13:35:00,87.2,75.8,30.01,East,95,2.0,4.0,69,0.00,,,0.01,Wunderground v.1.15,2013-09-16 18:35:00,
2013-09-16 13:45:00,80.3,73.2,30.01,ESE,113,3.0,4.0,79,0.00,,,0.01,Wunderground v.1.15,2013-09-16 18:45:00,
2013-09-16 13:55:00,77.8,72.9,30.02,ESE,105,1.0,2.0,85,0.37,,,0.03,Wunderground v.1.15,2013-09-16 18:55:00,
2013-09-16 14:00:00,77.0,73.2,30.02,SSE,158,0.0,0.0,88,0.17,,,0.05,Wunderground v.1.15,2013-09-16 19:00:00,
2013-09-16 14:10:00,75.8,73.0,30.01,WNW,289,0.0,0.0,91,0.05,,,0.05,Wunderground v.1.15,2013-09-16 19:10:00,
2013-09-16 14:20:00,75.1,72.9,30.00,ESE,115,0.0,0.0,93,0.00,,,0.05,Wunderground v.1.15,2013-09-16 19:20:00,
2013-09-16 14:30:00,74.9,73.1,30.00,WSW,248,0.0,0.0,94,0.00,,,0.05,Wunderground v.1.15,2013-09-16 19:30:00,
2013-09-16 14:40:00,75.0,73.5,30.00,NW,324,0.0,0.0,95,0.00,,,0.05,Wunderground v.1.15,2013-09-16 19:40:00,
2013-09-16 14:45:00,75.0,73.5,29.99,NNW,328,0.0,0.0,95,0.00,,,0.05,Wunderground v.1.15,2013-09-16 19:45:00,
2013-09-16 14:55:00,75.3,74.1,29.99,NNW,327,0.0,0.0,96,0.00,,,0.05,Wunderground v.1.15,2013-09-16 19:55:00,
2013-09-16 15:00:00,75.3,74.1,29.99,NNW,327,0.0,0.0,96,0.00,,,0.05,Wunderground v.1.15,2013-09-16 20:00:00,
2013-09-16 15:10:00,75.8,74.6,29.99,NNW,327,0.0,0.0,96,0.00,,,0.05,Wunderground v.1.15,2013-09-16 20:10:00,
2013-09-16 15:15:00,76.0,74.8,29.99,NNW,328,0.0,0.0,96,0.00,,,0.05,Wunderground v.1.15,2013-09-16 20:15:00,
2013-09-16 15:25:00,76.3,75.1,29.99,NNW,334,0.0,0.0,96,0.00,,,0.05,Wunderground v.1.15,2013-09-16 20:25:00,
2013-09-16 15:30:00,76.4,74.9,29.98,NW,323,1.0,1.0,95,0.00,,,0.05,Wunderground v.1.15,2013-09-16 20:30:00,
2013-09-16 15:40:00,76.4,74.9,29.98,North,351,1.0,1.0,95,0.00,,,0.05,Wunderground v.1.15,2013-09-16 20:40:00,
2013-09-16 15:45:00,76.6,75.1,29.98,North,349,0.0,1.0,95,0.00,,,0.05,Wunderground v.1.15,2013-09-16 20:45:00,
2013-09-16 15:55:00,76.8,75.3,29.97,NNE,16,1.0,1.0,95,0.00,,,0.05,Wunderground v.1.15,2013-09-16 20:55:00,
2013-09-16 16:05:00,76.8,75.3,29.97,North,349,1.0,1.0,95,0.00,,,0.05,Wunderground v.1.15,2013-09-16 21:05:00,
2013-09-16 16:15:00,76.9,75.4,29.97,North,6,1.0,1.0,95,0.00,,,0.05,Wunderground v.1.15,2013-09-16 21:15:00,
2013-09-16 16:25:00,76.9,75.4,29.97,NNW,334,1.0,1.0,95,0.00,,,0.05,Wunderground v.1.15,2013-09-16 21:25:00,
2013-09-16 16:35:00,77.0,75.5,29.96,WNW,293,1.0,1.0,95,0.00,,,0.05,Wunderground v.1.15,2013-09-16 21:35:00,
2013-09-16 16:45:00,77.0,75.5,29.96,NW,320,1.0,1.0,95,0.00,,,0.05,Wunderground v.1.15,2013-09-16 21:45:00,
2013-09-16 16:50:00,77.1,75.6,29.96,NW,316,1.0,1.0,95,0.00,,,0.05,Wunderground v.1.15,2013-09-16 21:50:00,
2013-09-16 17:00:00,77.5,76.0,29.96,NNE,29,1.0,1.0,95,0.00,,,0.05,Wunderground v.1.15,2013-09-16 22:00:00,
2013-09-16 17:10:00,77.9,76.0,29.96,NNW,347,1.0,2.0,94,0.00,,,0.05,Wunderground v.1.15,2013-09-16 22:10:00,
2013-09-16 17:20:00,79.0,77.1,29.96,NNW,327,1.0,1.0,94,0.00,,,0.05,Wunderground v.1.15,2013-09-16 22:20:00,
2013-09-16 17:30:00,80.3,76.4,29.95,NW,319,1.0,2.0,88,0.00,,,0.05,Wunderground v.1.15,2013-09-16 22:30:00,
2013-09-16 17:35:00,80.7,76.1,29.95,NNE,30,1.0,2.0,86,0.00,,,0.05,Wunderground v.1.15,2013-09-16 22:35:00,
2013-09-16 17:44:00,81.3,76.4,29.95,NNW,330,0.0,2.0,85,0.00,,,0.05,Wunderground v.1.15,2013-09-16 22:44:00,
2013-09-16 17:50:00,81.3,76.7,29.95,NE,54,1.0,1.0,86,0.00,,,0.05,Wunderground v.1.15,2013-09-16 22:50:00,
2013-09-16 18:00:00,81.4,76.8,29.95,NW,325,1.0,2.0,86,0.00,,,0.05,Wunderground v.1.15,2013-09-16 23:00:00,
2013-09-16 18:10:00,81.1,76.5,29.95,NW,318,1.0,1.0,86,0.00,,,0.05,Wunderground v.1.15,2013-09-16 23:10:00,
2013-09-16 18:20:00,81.1,76.9,29.95,NNW,342,0.0,0.0,87,0.00,,,0.05,Wunderground v.1.15,2013-09-16 23:20:00,
2013-09-16 18:30:00,81.1,77.2,29.96,NNW,332,0.0,0.0,88,0.00,,,0.05,Wunderground v.1.15,2013-09-16 23:30:00,
2013-09-16 18:40:00,81.0,77.1,29.96,NNW,332,0.0,0.0,88,0.00,,,0.05,Wunderground v.1.15,2013-09-16 23:40:00,
2013-09-16 18:45:00,80.9,77.4,29.96,NNW,332,0.0,0.0,89,0.00,,,0.05,Wunderground v.1.15,2013-09-16 23:45:00,
2013-09-16 18:55:00,80.4,76.2,29.99,ESE,115,1.0,2.0,87,0.00,,,0.06,Wunderground v.1.15,2013-09-16 23:55:00,
2013-09-16 19:05:00,75.6,71.5,29.99,East,79,1.0,2.0,87,0.15,,,0.14,Wunderground v.1.15,2013-09-17 00:05:00,
2013-09-16 19:14:00,73.8,71.3,30.00,NE,41,1.0,3.0,92,0.05,,,0.14,Wunderground v.1.15,2013-09-17 00:14:00,
2013-09-16 19:20:00,73.7,71.9,30.00,NNE,23,0.0,1.0,94,0.04,,,0.15,Wunderground v.1.15,2013-09-17 00:20:00,
2013-09-16 19:30:00,73.3,71.5,29.99,NNE,23,1.0,2.0,94,0.07,,,0.16,Wunderground v.1.15,2013-09-17 00:30:00,
2013-09-16 19:40:00,72.5,71.0,29.99,NNE,18,1.0,1.0,95,0.08,,,0.17,Wunderground v.1.15,2013-09-17 00:40:00,
2013-09-16 19:45:00,72.3,70.8,29.99,NNE,14,1.0,1.0,95,0.06,,,0.17,Wunderground v.1.15,2013-09-17 00:45:00,
2013-09-16 19:55:00,71.9,70.4,29.99,North,360,1.0,1.0,95,0.00,,,0.17,Wunderground v.1.15,2013-09-17 00:55:00,
2013-09-16 20:05:00,71.7,70.5,29.99,NNE,18,0.0,0.0,96,0.00,,,0.17,Wunderground v.1.15,2013-09-17 01:05:00,
2013-09-16 20:15:00,71.6,70.4,30.00,North,354,1.0,1.0,96,0.00,,,0.17,Wunderground v.1.15,2013-09-17 01:15:00,
2013-09-16 20:25:00,71.6,70.4,30.00,North,354,0.0,0.0,96,0.00,,,0.17,Wunderground v.1.15,2013-09-17 01:25:00,
2013-09-16 20:30:00,71.6,70.4,30.00,North,354,0.0,0.0,96,0.00,,,0.17,Wunderground v.1.15,2013-09-17 01:30:00,
2013-09-16 20:40:00,71.8,70.9,30.01,North,355,0.0,0.0,97,0.00,,,0.17,Wunderground v.1.15,2013-09-17 01:40:00,
2013-09-16 20:50:00,71.6,70.7,30.02,ENE,76,0.0,0.0,97,0.00,,,0.17,Wunderground v.1.15,2013-09-17 01:50:00,
2013-09-16 21:00:00,71.9,71.0,30.02,ESE,120,0.0,0.0,97,0.00,,,0.17,Wunderground v.1.15,2013-09-17 02:00:00,
2013-09-16 21:09:00,72.3,71.4,30.02,NNE,27,0.0,0.0,97,0.00,,,0.17,Wunderground v.1.15,2013-09-17 02:09:00,
2013-09-16 21:15:00,72.5,71.6,30.02,NNE,25,0.0,0.0,97,0.00,,,0.17,Wunderground v.1.15,2013-09-17 02:15:00,
2013-09-16 21:25:00,72.7,71.8,30.01,NNE,22,1.0,1.0,97,0.00,,,0.18,Wunderground v.1.15,2013-09-17 02:25:00,
2013-09-16 21:30:00,72.9,72.0,30.02,NNE,26,1.0,1.0,97,0.00,,,0.18,Wunderground v.1.15,2013-09-17 02:30:00,
2013-09-16 21:40:00,72.9,72.0,30.02,NNE,26,0.0,0.0,97,0.00,,,0.18,Wunderground v.1.15,2013-09-17 02:40:00,
2013-09-16 21:45:00,73.0,72.1,30.02,NNE,26,0.0,0.0,97,0.00,,,0.18,Wunderground v.1.15,2013-09-17 02:45:00,
2013-09-16 21:54:00,72.9,72.0,30.02,NNE,26,0.0,0.0,97,0.00,,,0.18,Wunderground v.1.15,2013-09-17 02:54:00,
2013-09-16 22:00:00,72.8,71.9,30.02,NNE,26,0.0,0.0,97,0.00,,,0.18,Wunderground v.1.15,2013-09-17 03:00:00,
2013-09-16 22:10:00,72.7,71.8,30.02,NNE,26,0.0,0.0,97,0.00,,,0.18,Wunderground v.1.15,2013-09-17 03:10:00,
2013-09-16 22:20:00,72.6,71.7,30.03,NNE,26,0.0,0.0,97,0.00,,,0.18,Wunderground v.1.15,2013-09-17 03:20:00,
2013-09-16 22:30:00,72.6,71.7,30.03,NNE,26,0.0,0.0,97,0.00,,,0.18,Wunderground v.1.15,2013-09-17 03:30:00,
2013-09-16 22:40:00,72.6,72.0,30.04,NNE,26,0.0,0.0,98,0.00,,,0.18,Wunderground v.1.15,2013-09-17 03:40:00,
2013-09-16 22:45:00,72.6,72.0,30.04,NNE,25,0.0,0.0,98,0.00,,,0.18,Wunderground v.1.15,2013-09-17 03:45:00,
2013-09-16 22:55:00,72.5,71.9,30.04,NNE,26,0.0,0.0,98,0.00,,,0.18,Wunderground v.1.15,2013-09-17 03:55:00,
2013-09-16 23:00:00,72.4,71.8,30.04,NNE,26,0.0,0.0,98,0.00,,,0.18,Wunderground v.1.15,2013-09-17 04:00:00,
2013-09-16 23:05:00,72.4,71.8,30.04,NNE,26,0.0,0.0,98,0.00,,,0.18,Wunderground v.1.15,2013-09-17 04:05:00,
2013-09-16 23:10:00,72.4,71.8,30.04,NNE,25,0.0,0.0,98,0.00,,,0.18,Wunderground v.1.15,2013-09-17 04:10:00,
2013-09-16 23:14:00,72.5,71.9,30.04,North,7,0.0,0.0,98,0.00,,,0.18,Wunderground v.1.15,2013-09-17 04:14:00,
2013-09-16 23:20:00,72.4,71.8,30.05,North,7,0.0,0.0,98,0.00,,,0.18,Wunderground v.1.15,2013-09-17 04:20:00,
2013-09-16 23:25:00,72.4,71.8,30.04,North,6,0.0,0.0,98,0.00,,,0.18,Wunderground v.1.15,2013-09-17 04:25:00,
2013-09-16 23:30:00,72.5,71.9,30.04,North,7,0.0,0.0,98,0.00,,,0.18,Wunderground v.1.15,2013-09-17 04:30:00,
2013-09-16 23:35:00,72.5,71.9,30.04,North,6,0.0,0.0,98,0.00,,,0.18,Wunderground v.1.15,2013-09-17 04:35:00,
2013-09-16 23:44:00,72.6,72.0,30.04,North,359,0.0,0.0,98,0.00,,,0.18,Wunderground v.1.15,2013-09-17 04:44:00,
2013-09-16 23:50:00,72.7,72.1,30.04,North,4,0.0,0.0,98,0.00,,,0.18,Wunderground v.1.15,2013-09-17 04:50:00,
2013-09-16 23:59:00,72.7,72.1,30.04,East,92,0.0,0.0,98,0.00,,,0.18,Wunderground v.1.15,2013-09-17 04:59:00,